Regional Weather Roundup
Issued by NWS Sterling, VA

Home | Current Version | Previous Version | Text Only | Print | Product List | Glossary Off
Versions: 1 2 3 4 5 6 7 8 9 10 11 12 13 14 15 16 17 18 19 20 21 22 23 24 25 26 27 28 29 30 31 32 33 34 35 36 37 38 39 40 41 42 43 44 45 46 47 48 49 50

000
ASUS41 KLWX 170610
RWRLWX

REGIONAL WEATHER ROUNDUP
NATIONAL WEATHER SERVICE BALTIMORE MD/WASHINGTON DC
200 AM EDT WED SEP 17 2014

Note: "FAIR" indicates few or no clouds below 12,000 feet
with no significant weather and/or obstructions to visibility.
 TC=TEMPERATURE CELSIUS

 * =Non NWS site. Station does not report precipitation (e.g. rain,
    snow, etc.), thunder, or fog.

DCZ001-MDZ009-015-VAZ040>042-051-053>054-170700-
WASHINGTON METRO

CITY           SKY/WX    TMP DP  RH WIND       PRES   REMARKS
WASHINGTON NAT PTCLDY    63  52  67 NW5       30.05S
DULLES         CLEAR     51  48  89 CALM      30.06R
ANDREWS AFB    CLEAR     54  48  82 N6        30.04S
QUANTICO       CLEAR     58  54  86 NW8       30.05S
COLLEGE PARK*  CLEAR     54  54 100 CALM      30.04S
LEESBURG*      CLEAR     54  54 100 CALM      30.06S
MANASSAS*      PTCLDY    52  52 100 CALM      30.06S
GAITHERSBURG*  CLEAR     52  48  87 CALM      30.10R

$$

MDZ006>007-011-014-170700-
BALTIMORE METRO

CITY           SKY/WX    TMP DP  RH WIND       PRES   REMARKS
BWI AIRPORT    CLEAR     54  51  90 CALM      30.04S
MD SCIENCE CTR   N/A     63  52  67 MISG      30.04F
MARTIN STATE   CLEAR     55  54  94 CALM      30.05S
ANNAPOLIS      CLEAR     63  58  83 N5        30.03S
FORT MEADE*    CLEAR     50  48  93 CALM      30.07S

$$

MDZ012-015-019>023-170700-
MARYLAND EASTERN SHORE

CITY           SKY/WX    TMP DP  RH WIND       PRES   REMARKS
OCEAN CITY     PTCLDY    60  56  86 NW3       30.01S
SALISBURY      PTCLDY    62  55  77 CALM      30.02R
BAY BRIDGE AP*   N/A     63  52  67 NE3       30.04R
CAMBRIDGE*     CLEAR     63  54  72 N5        30.02
EASTON*        CLEAR     59  56  92 CALM      30.07R

$$

MDZ017>025-170700-
SOUTHERN MARYLAND

CITY           SKY/WX    TMP DP  RH WIND       PRES   REMARKS
PATUXENT RIVER CLOUDY    66  54  65 NE8       30.03R
ST INIGOES     PTCLDY    61  54  77 CALM      30.02S
LEONARDTOWN*   MOCLDY    57  54  88 CALM      30.05R

$$

MDZ003>005-170700-
NORTH CENTRAL MARYLAND

CITY           SKY/WX    TMP DP  RH WIND       PRES   REMARKS
FREDERICK*       N/A     52  52 100 CALM      30.08S FOG
HAGERSTOWN APT CLEAR     56  48  74 CALM      30.06S
WESTMINSTER*   CLEAR     54  50  87 CALM      30.06S

$$

MDZ501>502-170700-
WESTERN MARYLAND

CITY           SKY/WX    TMP DP  RH WIND       PRES   REMARKS
OAKLAND*       CLEAR     46 N/A N/A CALM      30.11S
CUMBERLAND*    CLEAR     48  46  93 CALM      30.12S

$$

VAZ025>031-170700-
SHENANDOAH VALLEY

CITY           SKY/WX    TMP DP  RH WIND       PRES   REMARKS
WINCHESTER*    CLEAR     52  48  87 CALM      30.07S
STAUNTON*      CLOUDY    58  49  72 N5        30.10S

$$

WVZ021-048>050-054>055-170700-
EASTERN WEST VIRGINIA PANHANDLE

CITY           SKY/WX    TMP DP  RH WIND       PRES   REMARKS
MARTINSBURG    CLEAR     50  46  86 S5        30.07S
PETERSBURG*    PTCLDY    47  45  93 CALM      30.11S

$$

VAZ036>039-050-170700-
CENTRAL FOOTHILLS

CITY           SKY/WX    TMP DP  RH WIND       PRES   REMARKS
CHARLOTTESVILL MOCLDY    59  52  77 CALM      30.06R
ORANGE*        PTCLDY    59  50  72 CALM      30.07S

$$

VAZ055>057-170700-
NORTH AND CENTRAL PIEDMONT

CITY           SKY/WX    TMP DP  RH WIND       PRES   REMARKS
FREDERICKSBRG* PTCLDY    58  54  87 CALM      30.04S
STAFFORD*      CLEAR     53  53 100 CALM      30.08F

$$

NCZ024-NYZ072-PAZ021-071-VAZ022-071-170700-
OTHER REGIONAL OBSERVATIONS

CITY           SKY/WX    TMP DP  RH WIND       PRES   REMARKS
NEW YORK CITY  CLEAR     61  49  64 VRB5      30.05S
PHILADELPHIA   CLEAR     59  51  75 CALM      30.04S
PITTSBURGH     CLOUDY    53  50  89 CALM      30.09S
ROANOKE        CLOUDY    65  54  67 N7        30.07F
RICHMOND       MOCLDY    65  56  72 N7        30.02S
RALEIGH        CLOUDY    70  67  90 CALM      29.99R

$$

ANZ530>537-170700-
MARINE OBSERVATIONS

STATION/POSITION TIME  TEMP    WIND        PRES
                       AIR SEA DIR/SP/G
                 (UTC) (F)     (DEG/KT/KT) (MB)
THOMAS PT LIGHT  0600   67 74   50/ 12/ 13 1018.0R
BALT KEY BRIDGE  0600   64     340/  3/  5 1017.1R
COVE POINT       0600   68      60/  8/ 10 1016.7S
LEWISETTA        0600   70 74   40/  9/ 11 1016.1F
SOLOMONS ISLAND  0600      76                N/A
PINEY POINT      0600           50/  5/  7   N/A

$$



USA.gov is the U.S. government's official web portal to all federal, state and local government web resources and services.